Regional Weather Roundup
Issued by NWS

Home | Current Version | Previous Version | Text Only | Print | Product List | Glossary On
Versions: 1 2 3 4 5 6 7 8 9 10 11 12 13 14 15 16 17 18 19 20 21 22 23 24 25 26 27 28 29 30 31 32 33 34 35 36 37 38 39 40 41 42 43 44 45 46 47 48 49 50
000
ASUS43 KTOP 070708
RWRKS

WEATHER ROUNDUP FOR KANSAS
NATIONAL WEATHER SERVICE GOODLAND KS
200 AM CDT THU MAY 07 2015

NOTE:  "FAIR" INDICATES FEW OR NO CLOUDS BELOW 12,000 FEET WITH NO
SIGNIFICANT WEATHER AND/OR OBSTRUCTIONS TO VISIBILITY.

KSZ001>006-013>018-027>032-041>047-070800-
NORTHWEST KANSAS

CITY           SKY/WX    TMP DP  RH WIND       PRES   REMARKS
GOODLAND       LGT RAIN  56  53  90 NW12      29.75R
HAYS           PTCLDY    64  57  77 S20       29.70R
HILL CITY      MOCLDY    60  57  89 N5        29.67R
RUSSELL        PTCLDY    64  59  83 S26G38    29.69R
$$

KSZ061>065-074>080-084>089-070800-
SOUTHWEST KANSAS

CITY           SKY/WX    TMP DP  RH WIND       PRES   REMARKS
DODGE CITY     PTCLDY    62  54  74 S16       29.73F
ELKHART          N/A     57  47  69 SW3         N/A
GARDEN CITY    CLEAR     54  49  83 SE7       29.73R
GREAT BEND     MOCLDY    64  57  77 S18G28    29.73R
LIBERAL        CLEAR     55  46  71 S8        29.75F
PRATT          CLEAR     61  54  77 S22G31    29.76F
$$

KSZ066>073-081>083-090>101-070800-
SOUTHEAST KANSAS

CITY           SKY/WX    TMP DP  RH WIND       PRES   REMARKS
CHANUTE        CLOUDY    68  58  70 S10       29.89F
COFFEYVILLE    CLOUDY    72  61  68 S10       29.91R
HUTCHINSON     MOCLDY    65  56  72 S21       29.74F
MEDICINE LODGE   N/A     62  58  86 SE7       29.78F
NEWTON         CLOUDY    64  57  77 S18G26    29.78S
PARSONS        CLOUDY    70  60  70 S6        29.92S
WICHITA INTL   CLOUDY    68  60  75 S21       29.77F
WICHITA JABRA  CLOUDY    67  60  78 S20G26    29.78F
WICHITA MCCONL CLOUDY    67  59  75 SE23G29   29.78F
WINFIELD       LGT RAIN  67  59  75 SE18G29   29.85F
$$

KSZ007>012-019>026-033>040-048>060-102>105-070800-
NORTHEAST KANSAS

CITY           SKY/WX    TMP DP  RH WIND       PRES   REMARKS
CONCORDIA      LGT RAIN  68  61  78 S29G46    29.68R
EMPORIA        CLOUDY    66  57  72 S22G28    29.76F
LAWRENCE       CLOUDY    68  57  68 SE15G25   29.81F
MANHATTAN      CLOUDY    70  60  70 S14G26    29.73R
MARYSVILLE     CLOUDY    66  59  77 S16G25    29.70S
OLATHE IND     CLOUDY    67  58  72 SE17G25   29.85F
OLATHE EXE     CLOUDY    67  58  72 S18G25    29.85F
SALINA         CLOUDY    69  61  75 S20G31    29.70S
TOPEKA BILLARD CLOUDY    69  58  67 S20G29    29.78F
TOPEKA FORBES  CLOUDY    70  57  63 S17G25    29.79F
$$


USA.gov is the U.S. government's official web portal to all federal, state and local government web resources and services.